{"data":{"norad_id":69865,"epoch":"2026-09-20T04:50:34.586880Z","epoch_age_seconds":47424,"freshness":"FRESH","line1":"1 69865U 26155T   26263.20178920  .00000043  00000+0  43138-4 0  9990","line2":"2 69865  89.0093  53.7415 0034519  11.0957 349.0951 13.57139917 10698","mean_motion":13.57139917,"eccentricity":0.0034519,"inclination_deg":89.0093,"raan_deg":53.7415,"arg_perigee_deg":11.0957,"mean_anomaly_deg":349.0951,"bstar":4.3138e-5,"rev_number":1069,"period_min":106.10549302707,"perigee_km":1020.4767828381,"apogee_km":1071.7322614587,"semimajor_km":7424.2415221484,"source":"CELESTRAK","updated_at":"2026-09-20T09:00:25.160999Z"}}